Location: Antin
(43.3330°N, 0.2804°E)
Time: 18:53:10
(UTC+00:00)

SME Rocket - Pass Details

Date: 13 December 2023
Orbit: 550 x 2645 km, 99.9° (Epoch: 20 February)

Event Time Altitude Azimuth Distance (km) Brightness Sun altitude
Rises 05:03:50 0° 24° (NNE) 6,014 8.3 -24.3°
Reaches altitude 10° 05:09:30 10° 42° (NE) 5,227 8.1 -23.3°
Maximum altitude 05:18:02 18° 80° (E) 4,725 8.3 -21.8°
Drops below altitude 10° 05:26:33 10° 117° (ESE) 5,284 8.9 -20.2°
Sets 05:32:08 0° 135° (SE) 6,113 9.1 -19.3°
